Dewpoint
44 42 42 45 45 44 43 40 31 43 50 39 39 34 34 35 36 36 35 38 36 33 24 21 20 20 19 22 23 19 26 22 16 18 27 29 26 24 23 20 18 24 21 17
44 43 43 44 46 43 41 36 33 47 44 31 32 35 34 34 34 34 35 35 36 36 27 21 22 22 23 26 23 22 27 21 15 16 23 29 27 27 27 26 24 21 19 19
44 42 43 44 45 43 41 36 28 40 41 33 32 32 33 31 35 35 35 36 38 34 31 28 22 22 29 34 27 29 27 25 16 14 15 22 25 25 28 26 23 23 22 21
44 42 43 44 44 45 42 38 28 36 32 33 33 32 32 31 29 34 35 34 35 35 29 28 25 30 33 33 34 31 26 20 24 22 21 23 23 25 26 25 24 22 22 22
44 42 42 43 43 44 40 34 33 37 34 31 33 33 31 31 31 34 31 32 33 34 35 31 27 32 32 29 32 30 29 23 22 22 25 25 24 24 27 25 24 24 23 22
44 42 42 43 42 43 39 39 39 38 32 33 30 30 30 31 32 32 35 32 32 32 33 33 32 33 33 32 31 29 27 25 22 20 25 23 21 23 23 23 25 24 22 23
44 43 43 42 42 42 40 39 37 35 30 33 31 29 32 31 32 30 32 35 33 33 38 37 37 37 36 34 34 33 27 24 23 20 22 18 21 26 25 24 24 24 23 24
43 43 43 41 40 41 38 42 38 36 30 34 33 32 31 32 32 32 32 33 34 33 32 33 33 32 31 32 36 34 33 26 23 20 20 21 21 22 22 20 18 24 23 28
43 44 43 41 42 41 38 40 42 40 37 31 34 34 32 30 31 32 33 34 34 35 34 29 26 30 29 28 30 33 31 29 23 23 19 17 20 24 24 22 17 26 28 31
43 44 42 41 42 42 38 37 43 41 36 39 37 34 32 33 32 31 32 33 36 38 30 31 27 28 32 27 27 30 30 28 22 22 21 24 27 24 24 17 17 27 31 32
42 42 41 40 41 42 39 36 41 41 37 39 43 42 36 35 33 31 34 32 36 39 32 32 32 29 30 29 29 30 29 28 28 26 25 25 26 25 20 22 27 29 32 33
42 41 41 41 41 41 40 35 39 41 41 40 42 41 41 40 39 34 38 33 37 35 37 35 32 29 30 29 27 31 28 30 28 29 27 30 29 26 28 29 30 32 33 35
41 41 40 40 41 42 40 37 39 40 39 37 38 37 44 43 42 44 35 40 43 41 41 36 35 31 31 27 27 30 30 32 28 29 31 33 37 37 37 36 34 37 36 34
39 40 40 41 41 42 40 38 40 41 38 33 34 44 42 48 46 45 45 41 48 46 44 38 35 32 35 29 30 29 31 32 31 31 36 37 37 36 35 36 37 36 34 34
41 41 42 43 43 43 42 41 43 44 39 34 35 37 42 45 51 49 48 47 45 43 40 37 35 37 35 35 34 31 34 31 28 24 31 29 31 35 36 36 35 34 33 32
41 41 41 42 42 42 40 36 41 44 44 36 31 40 42 48 51 50 49 47 45 42 38 38 41 43 38 31 30 32 34 35 35 30 37 36 35 35 34 34 33 33 32 31
41 42 42 42 42 41 36 35 38 41 43 38 34 35 40 49 49 47 47 47 45 43 40 39 40 41 40 33 29 32 38 38 37 37 35 34 34 34 33 33 32 32 31 31
42 42 42 42 42 40 38 40 46 41 38 37 33 35 39 47 44 43 46 42 42 42 40 38 39 38 35 32 33 37 37 37 36 36 36 35 34 33 32 32 31 31 30 30
42 42 42 41 39 37 36 46 43 44 36 34 35 34 35 44 41 41 42 41 39 41 40 39 40 36 34 35 34 36 36 36 35 34 33 33 32 32 31 31 30 30 29 29
42 41 37 34 37 45 47 44 38 37 37 38 35 39 37 41 38 38 38 38 37 37 38 39 36 36 35 35 36 37 36 34 33 32 31 31 31 31 30 30 30 29 29 29
40 38 35 41 45 40 37 32 33 35 33 36 36 37 38 41 37 34 36 35 35 33 35 37 34 36 34 36 36 36 35 34 34 34 33 33 31 30 29 29 29 29 29 28
40 41 45 42 40 37 33 31 31 32 32 35 35 38 40 39 41 36 33 32 33 32 36 34 32 34 35 36 36 36 36 35 34 33 33 32 31 30 29 28 28 28 27 24
43 40 35 36 33 30 29 27 29 30 32 35 36 35 37 37 38 32 32 31 31 34 33 32 30 33 36 36 36 35 35 34 33 33 32 32 30 29 27 27 27 25 24 23
35 32 28 28 27 27 27 28 30 32 32 34 35 34 35 34 33 31 30 32 32 27 27 26 30 34 35 35 35 34 33 33 32 31 30 29 28 27 27 26 25 24 22 20
31 31 26 27 30 31 31 31 32 32 33 34 35 34 34 32 31 31 31 28 25 25 25 29 31 34 34 33 33 32 31 31 30 29 28 27 27 26 25 25 22 21 21 19
30 29 26 29 28 27 28 29 30 33 32 34 32 31 31 30 30 28 26 25 22 25 28 31 32 32 32 31 31 31 30 30 29 27 27 27 26 25 22 19 19 19 18 16
27 26 27 27 28 25 27 28 28 32 33 30 31 25 23 29 25 22 24 21 25 27 30 31 31 31 30 30 30 30 29 29 28 28 27 25 24 22 19 15 16 15 17 17
Wind_Speed
42 39 38 40 40 35 28 10 12 13 24 23 15 32 11 11 25 2 5 4 5 4 8 12 20 16 17 15 15 11 10 7 13 13 2 3 5 9 10 10 6 3 3 13
44 41 39 38 39 44 24 12 10 19 25 25 31 15 23 11 12 15 6 6 5 4 1 6 14 14 10 13 14 15 12 4 11 5 1 1 5 7 6 7 5 9 8 11
46 43 40 42 37 41 26 9 16 11 22 26 26 31 25 32 13 14 7 3 3 6 5 5 4 13 6 10 14 8 12 8 12 23 16 6 6 11 12 9 7 7 12 18
48 45 43 45 44 43 25 11 14 11 29 38 30 30 20 27 26 22 15 4 12 2 7 3 5 4 5 2 6 8 14 13 11 8 6 9 9 8 15 13 12 12 17 15
50 48 45 48 48 42 25 11 9 8 18 27 30 22 33 33 29 14 22 13 13 20 9 8 3 2 3 7 8 10 7 9 8 9 4 5 8 8 11 10 4 9 11 13
49 47 48 50 49 43 14 8 4 6 21 31 27 43 31 28 27 26 12 30 18 12 23 21 21 14 12 6 5 17 15 12 8 13 1 0 11 16 14 10 9 13 19 19
48 47 49 53 52 52 6 7 3 6 12 25 39 26 26 34 34 19 28 17 13 10 2 1 1 2 7 12 6 5 13 13 5 6 5 17 9 2 8 18 15 12 9 8
47 46 53 50 45 42 17 7 9 6 16 18 19 24 33 18 23 24 18 23 15 8 7 5 3 3 3 2 5 4 2 12 6 9 12 8 5 7 10 11 18 10 10 10
49 48 49 50 44 46 25 6 3 2 4 23 18 23 22 29 23 15 21 19 12 1 5 7 5 8 8 8 4 4 9 5 13 7 7 15 8 12 8 7 18 11 16 22
49 47 45 42 37 36 24 11 4 5 4 2 16 22 25 18 20 11 11 18 15 10 13 10 14 20 4 14 16 8 7 3 14 9 9 9 13 5 9 10 12 20 23 24
45 45 42 39 33 31 19 13 10 3 9 8 4 3 15 18 30 17 7 13 15 6 19 12 9 10 13 6 9 13 16 15 8 5 7 16 11 9 15 10 2 19 20 20
40 38 34 31 30 29 23 8 17 13 10 4 3 7 9 5 9 18 12 9 10 18 12 8 5 5 6 9 15 3 12 10 16 17 13 5 12 7 8 7 8 15 20 14
32 30 29 28 28 31 21 9 16 15 6 6 5 9 1 9 13 11 17 8 6 5 4 11 6 6 10 10 9 9 7 5 6 7 10 11 9 8 6 5 10 14 12 22
28 26 26 27 32 34 22 15 15 17 6 8 9 5 9 7 15 16 14 7 3 7 3 6 8 6 8 9 5 12 6 15 10 5 6 3 10 11 10 11 15 19 16 15
27 26 27 27 30 34 17 12 9 4 5 7 10 20 7 12 11 17 18 19 12 5 6 4 8 7 6 1 2 7 10 11 17 20 20 19 12 17 13 18 18 20 27 19
29 29 29 28 28 27 11 5 8 3 0 3 4 5 6 3 7 16 19 20 9 7 12 8 4 4 3 11 9 7 17 11 5 7 16 4 16 15 10 18 17 16 20 21
28 27 25 25 27 16 4 7 5 18 5 4 6 6 4 2 4 4 5 6 5 5 7 7 6 6 7 7 16 6 6 3 4 15 22 11 13 13 17 22 21 21 20 19
27 28 26 25 21 5 6 2 6 16 7 2 4 5 5 3 2 3 2 6 4 3 5 3 6 6 4 11 7 8 9 13 14 5 5 11 22 24 22 22 24 24 23 23
27 25 30 15 5 7 6 3 22 5 6 3 5 3 1 2 4 2 3 2 7 2 6 5 6 7 12 8 7 14 17 13 19 13 17 20 25 23 22 23 21 27 23 22
36 25 8 5 7 13 16 3 4 1 1 5 5 3 2 3 2 3 4 3 5 5 1 5 4 7 4 1 1 10 11 19 23 24 16 21 22 23 22 20 19 22 24 23
10 5 4 5 26 6 3 6 12 9 9 9 9 10 5 1 2 2 3 3 4 8 5 6 3 4 3 2 13 13 14 15 4 9 13 14 24 28 26 22 19 20 21 21
3 7 8 7 4 4 6 5 3 5 6 4 5 6 5 2 2 3 1 2 3 5 7 7 4 2 3 2 11 12 13 13 14 17 22 21 22 22 23 23 23 21 21 21
5 3 4 3 1 4 3 3 0 2 1 1 3 4 4 3 4 3 0 3 2 1 2 4 2 7 3 11 14 15 15 17 19 20 20 21 22 21 24 23 19 21 21 17
2 3 5 5 3 5 3 2 2 2 1 1 4 4 3 3 3 2 4 2 2 3 1 2 5 2 9 11 12 19 18 18 20 21 22 23 23 21 19 21 20 23 20 17
4 6 6 8 5 4 4 2 4 8 4 1 3 6 4 5 5 3 3 2 4 4 4 6 7 5 10 11 12 16 17 17 18 19 21 21 21 22 20 17 17 18 19 18
5 9 6 9 9 16 13 14 9 9 10 4 5 5 5 5 3 4 6 3 5 6 7 7 2 9 10 12 12 13 14 16 17 18 19 20 20 21 19 16 15 16 18 18
6 8 16 9 6 10 9 10 12 9 4 4 5 6 5 5 5 5 7 5 8 12 9 3 4 9 12 15 16 16 17 18 19 20 19 19 18 19 19 18 13 14 12 13
Wind_Direction
203 203 204 203 190 174 174 184 200 172 151 187 209 219 188 238 234 197 271 290 261 252 198 188 200 195 203 184 164 185 185 181 225 222 212 154 198 212 184 221 223 198 224 268
196 197 196 192 185 173 170 193 182 172 167 191 212 206 210 233 226 228 213 239 244 335 255 200 204 201 219 162 171 182 178 202 224 272 338 53 210 195 167 123 118 213 238 260
190 191 193 187 187 178 173 179 176 173 195 216 203 195 204 209 233 241 198 238 284 275 307 238 237 212 201 190 195 182 154 172 198 223 229 171 204 205 192 174 196 206 229 265
185 185 188 184 179 178 181 193 203 189 184 211 208 198 197 194 213 210 198 239 221 210 238 302 213 189 155 158 180 169 175 221 205 223 217 198 227 217 192 197 210 224 265 249
181 182 186 185 175 188 191 176 191 182 198 204 199 202 209 196 207 192 209 209 210 219 239 235 117 76 226 193 178 176 177 211 176 203 160 205 221 232 204 218 211 247 251 264
177 181 185 181 173 192 191 203 247 203 205 187 190 209 200 199 197 218 196 211 219 219 225 245 266 253 249 241 226 182 178 168 175 216 133 93 247 228 218 221 206 219 239 243
173 179 180 179 176 190 145 179 204 213 198 190 208 193 199 194 203 203 213 229 208 230 280 232 53 34 237 215 186 207 166 159 155 194 120 234 245 267 233 236 244 230 260 225
170 176 175 175 179 185 196 156 210 204 215 208 209 201 197 195 206 224 221 220 230 296 329 305 230 256 196 98 49 147 186 157 172 192 208 277 260 214 199 208 258 218 226 175
167 168 168 175 182 183 188 181 121 296 211 215 198 196 189 197 203 213 227 235 253 139 210 229 242 243 189 196 159 68 91 84 194 160 212 242 250 236 171 123 257 185 170 165
164 164 169 176 179 182 179 198 121 285 279 281 194 191 191 182 191 214 200 195 224 187 216 229 212 247 225 178 179 170 142 107 194 179 221 265 245 209 148 197 251 176 172 170
164 166 173 179 177 177 167 194 190 279 239 302 335 49 171 178 199 185 158 168 221 187 201 204 211 225 209 185 181 173 178 174 185 142 215 258 178 140 199 218 228 175 169 169
158 165 169 170 172 174 168 188 209 252 252 262 311 274 251 214 180 181 184 186 166 189 188 200 173 198 179 174 207 162 201 193 199 196 221 191 191 218 221 192 183 171 160 162
152 155 164 169 170 170 165 171 179 242 201 285 302 263 63 216 219 213 197 230 199 196 190 181 187 217 160 201 225 172 211 167 186 168 214 218 232 245 232 186 171 154 150 154
149 156 166 177 175 169 166 177 191 226 131 194 278 275 278 213 209 201 203 221 93 123 122 181 184 212 194 210 205 202 180 153 171 239 254 248 244 228 190 141 129 125 118 136
150 155 160 150 155 161 159 193 220 205 47 172 269 309 262 219 184 206 201 214 213 186 181 205 204 154 155 152 137 209 190 171 184 218 203 188 201 175 158 147 146 139 134 125
148 151 152 151 150 153 147 157 230 272 86 62 323 294 270 290 238 218 204 203 187 197 201 204 204 144 165 182 219 235 200 200 226 214 160 121 132 128 125 133 131 125 126 133
148 150 149 148 149 153 154 157 193 173 70 16 278 278 244 238 188 118 139 158 181 176 175 198 173 155 115 233 211 195 169 142 104 130 115 106 159 163 135 125 117 110 107 112
147 146 147 151 155 120 281 273 179 126 93 290 261 276 319 9 226 135 95 136 131 65 171 141 173 151 180 244 205 152 139 127 132 182 3 149 126 120 121 122 125 119 120 121
142 138 138 123 138 163 233 167 145 147 135 231 220 246 277 355 55 299 98 103 160 94 171 176 176 181 220 223 189 181 169 180 153 109 109 122 129 129 131 131 130 127 129 126
135 133 150 161 184 146 106 92 115 97 54 246 275 262 298 40 49 63 1 40 123 151 153 135 201 244 270 318 279 163 146 131 131 130 138 135 135 136 136 135 135 136 137 133
155 137 125 140 149 124 134 173 189 171 188 201 218 218 244 113 221 130 69 188 143 162 189 159 212 268 277 158 138 136 137 139 134 128 129 139 141 142 136 131 129 126 127 128
161 117 112 133 145 156 215 178 139 173 194 193 180 172 167 98 52 94 198 195 139 164 154 150 220 119 72 190 132 131 135 122 123 131 131 131 132 134 131 129 128 126 122 125
284 103 107 183 93 163 185 174 355 178 167 229 170 143 117 136 91 104 233 61 133 61 156 168 30 16 108 133 123 109 106 112 112 113 117 119 119 121 126 121 120 120 118 122
13 43 67 54 45 43 37 10 91 82 288 323 149 104 94 89 90 66 74 24 86 80 187 1 355 203 123 112 116 118 118 119 118 117 118 117 117 114 113 119 125 125 129 129
65 33 41 40 13 17 352 319 48 7 316 301 83 66 72 52 87 46 110 59 61 52 8 344 346 83 99 101 107 114 116 117 118 122 118 117 117 114 107 110 118 120 122 127
52 38 19 359 30 17 16 8 11 359 346 351 43 76 59 48 50 58 31 54 42 353 331 324 69 105 107 112 108 106 108 110 109 108 110 109 110 113 112 107 113 119 129 136
43 33 15 16 28 15 3 349 341 315 13 43 43 53 24 7 51 43 19 26 334 319 320 350 90 109 107 101 97 99 100 99 101 103 104 104 105 109 114 118 116 112 115 119